SCP
0 0 0 0 0 0 0 0 0 0 0 0 0 0 0 0 0 0 0 0 0 0 0 0 0 0 0 0 0 0 0 0 0 0 0 0 0 0 0 0 0 0 0 0 0 0 0 0 0
0 0 0 0 0 0 0 0 0 0 0 0 0 0 0 0 0 0 0 0 0 0 0 0 0 0 0 0 0 0 0 0 0 0 0 0 0 0 0 0 0 0 0 0 0 0 0 0 0
0 0 0 0 0 0 0 0 0 0 0 0 0 0 0 0 0 0 0 0 0 0 0 0 0 0 0 0 0 0 0 0 0 0 0 0 0 0 0 0 0 0 0 0 0 0 0 0 0
0 0 0 0 0 0 0 0 0 0 0 0 0 0 0 0 0 0 0 0 0 0 0 0 0 0 0 0 0 0 0 0 0 0 0 0 0 0 0 0 0 0 0 0 0 0 0 0 0
0 0 0 0 0 0 0 0 0 0 0 0 0 0 0 0 0 0 0 0 0 0 0 0 0 0 0 0 0 0 0 0 0 0 0 0 0 0 0 0 0 0 0 0 0 0 0 0 0
0 0 0 0 0 0 0 0 0 0 0 0 0 0 0 0 0 0 0 0 0 0 0 0 0 0 0 0 0 0 0 0 0 0 0 0 0 0 0 0 0 0 0 0 0 0 0 0 0
0 0 0 0 0 0 0 0 0 0 0 0 0 0 0 0 0 0 0 0 0 0 0 0 0 0 0 0 0 0 0 0 0 0 0 0 0 0 0 0 0 0 0 0 0 0 0 0 0
0 0 0 0 0 0 0 0 0 0 0 0 0 0 0 0 0 0 0 0 0 0 0 0 0 0 0 0 0 0 0 0 0 0 0 0 0 0 0 0 0 0 0 0 0 0 0 0 0
0 0 0 0 0 0 0 0 0 0 0 0 0 0 0 0 0 0 0 0 0 0 0 0 0 0 0 0 0 0 0 0 0 0 0 0 0 0 0 0 0 0 0 0 0 0 0 0 0
0 0 0 0 0 0 0 0 0 0 0 0 0 0 0 0 0 0 0 0 0 0 0 0 0 0 0 0 0 0 0 0 0 0 0 0 0 0 0 0 0 0 0 0 0 0 0 0 0
0 0 0 0 0 0 0 0 0 0 0 0 0 0 0 0 0 0 0 0 0 0 0 0 0 0 0 0 0 0 0 0 0 0 0 0 0 0 0 0 0 0 0 0 0 0 0 0 0
0 0 0 0 0 0 0 0 0 0 0 0 0 0 0 0 0 0 0 0 0 0 0 -0 0 0 0 0 0 0 0 0 0 0 0 0 0 0 0 0 0 0 0 0 0 0 0 0 0
0 0 0 0 0 0 0 0 0 0 0 0 0 0 0 0 0 0 0 0 0 0 0 -0 0 0 0 0 0 0 0 0 0 0 0 0 0 0 0 0 0 0 0 0 0 0 0 0 0
0 0 0 0 0 0 0 0 0 -0 0 0 0 0 0 0 0 0 0 0 0 0 0 0 0 0 0 0 0 0 0 0 0 0 0 0 0 0 0 0 0 0 0 0 0 0 0 0 0
0 0 0 0 0 0 0 0 0 -0 0 0 0 0 0 0 0 0 0 0 0 0 0 0 0 0 0 0 0 0 0 0 0 0 0 0 0 0 0 0 0 0 0 0 0 0 0 0 0
0 0 0 0 0 0 0 0 0 0 0 0 0 0 0 0 0 0 0 0 0 0 0 0 0 0 0 0 0 0 0 0 0 0 0 0 0 0 0 0 0 0 0 0 0 0 0 0 0
0 0 0 0 0 0 0 0 0 0 0 0 0 0 0 0 0 0 0 0 0 0 0 0 0 0 0 0 0 0 0 0 0 0 0 0 0 0 0 0 0 0 0 0 0 0 0 0 0
0 0 0 0 0 0 0 0 0 0 0 0 0 0 0 0 0 0 0 0 0 0 0 0 0 0 0 0 0 0 0 0 0 0 0 0 0 0 0 0 0 0 0 0 0 0 0 0 0
0 0 0 0 0 0 0 0 0 0 0 0 0 0 0 0 0 0 0 0 0 0 0 0 0 0 0 0 0 0 0 0 0 0 0 0 0 0 0 0 0 0 0 0 0 0 0 0 0
0 0 0 0 0 0 0 0 0 0 0 0 0 0 0 0 0 0 0 0 0 0 0 0 0 0 0 0 0 0 0 0 0 0 0 0 0 0 0 0 0 0 0 0 0 0 0 0 0
0 0 0 0 0 0 0 0 0 0 0 0 0 0 0 0 0 0 0 0 0 0 0 0 0 0 0 0 0 0 0 0 0 0 0 0 0 0 0 0 0 0 0 0 0 0 0 0 0
0 0 0 0 0 0 0 0 0 0 0 0 0 0 0 0 0 0 0 0 0 0 0 0 0 0 0 0 0 0 0 0 0 0 0 0 0 0 0 0 0 0 0 0 0 0 0 0 0
0 0 0 0 0 0 0 0 0 0 0 0 0 0 0 0 0 0 0 0 0 0 0 0 0 0 0 0 0 0 0 0 0 0 0 0 0 0 0 0 0 0 0 0 0 0 0 0 0
0 0 0 0 0 0 0 0 0 0 0 0 0 0 0 0 0 0 0 0 0 0 0 0 0 0 0 0 0 0 0 0 0 0 0 0 0 0 0 0 0 0 0 0 0 0 0 0 0
0 0 0 0 0 0 0 0 0 0 0 0 0 0 0 0 0 0 0 0 0 0 0 0 0 0 0 0 0 0 0 0 0 0 0 0 0 0 0 0 0 0 0 0 0 0 0 0 0
0 0 0 0 0 0 0 0 0 0 0 0 0 0 0 0 0 0 0 0 0 0 0 0 0 0 0 0 0 0 0 0 0 0 0 0 0 0 0 0 0 0 0 0 0 0 0 0 0
0 0 0 0 0 0 0 0 0 0 0 0 0 0 0 0 0 0 0 0 0 0 0 0 0 0 0 0 0 0 0 0 0 0 0 0 0 0 0 0 0 0 0 0 0 0 0 0 0
0 0 0 0 0 0 0 0 0 0 0 0 0 0 0 0 0 0 0 0 0 0 0 0 0 0 0 0 0 0 0 0 0 0 0 0 0 0 0 0 0 0 0 0 0 0 0 0 0
0 0 0 0 0 0 0 0 0 0 0 0 0 0 0 0 0 0 0 0 0 0 0 0 0 0 0 0 0 0 0 0 0 0 0 0 0 0 0 0 0 0 0 0 0 0 0 0 0
0 0 0 0 0 0 0 0 0 0 0 0 0 0 0 0 0 0 0 0 0 0 0 0 0 0 0 0 0 0 0 0 0 0 0 0 0 0 0 0 0 0 0 0 0 0 0 0 0
Wind_Speed
3 3 3 4 7 4 3 4 3 2 2 1 2 4 6 4 3 3 2 2 2 1 1 1 4 4 5 6 5 5 5 5 5 5 6 7 7 7 8 7 8 8 7 7 8 8 8 9 9
1 2 5 5 6 2 4 4 4 3 2 2 3 4 5 3 1 2 1 3 2 2 2 2 5 5 5 5 5 4 4 4 4 4 4 5 6 6 6 7 6 7 7 7 7 8 8 8 9
1 3 5 5 4 6 5 3 5 1 0 1 3 3 3 2 1 1 2 2 3 4 3 3 5 5 5 4 4 4 3 3 2 2 2 3 4 5 5 5 6 6 6 6 6 7 8 9 9
3 4 5 4 4 4 3 1 2 1 2 2 4 4 2 2 1 0 1 3 5 4 4 4 6 5 5 3 3 2 2 1 1 0 1 2 3 4 4 4 4 5 6 6 6 7 8 9 9
4 4 4 1 4 2 2 1 1 2 2 2 3 4 2 3 2 3 3 4 4 4 4 5 7 6 5 5 3 2 2 1 1 1 1 2 2 3 3 3 4 5 6 7 7 7 8 9 9
4 4 4 4 3 2 1 1 1 2 2 2 4 4 1 2 3 2 3 4 4 3 4 4 7 7 7 6 5 3 3 2 2 2 2 2 2 3 3 3 4 5 6 7 7 8 8 8 9
4 4 4 5 3 1 1 1 2 2 2 1 3 4 1 1 2 2 3 4 4 4 4 4 4 4 6 6 6 5 4 4 3 3 3 3 3 3 3 3 4 5 6 6 7 8 8 8 8
4 4 3 3 4 2 1 1 1 2 2 0 2 5 3 2 0 2 4 4 4 5 5 4 4 4 3 3 5 6 5 5 5 4 3 3 3 3 3 3 4 5 6 6 6 7 8 8 8
3 4 3 4 4 2 0 1 2 1 2 2 2 2 2 2 2 4 4 4 5 5 5 4 4 4 3 3 4 5 5 5 5 4 4 3 2 2 2 3 4 5 6 6 6 6 6 6 6
4 3 4 2 2 2 1 1 0 2 3 2 2 2 2 3 3 4 3 3 4 5 5 4 4 4 4 3 3 2 2 3 2 2 2 1 1 2 2 3 4 5 5 6 7 6 5 4 3
3 3 2 1 0 2 2 1 1 3 1 2 3 2 1 2 3 3 2 2 2 3 4 4 4 4 3 3 2 2 1 2 2 2 2 2 1 1 1 1 2 3 3 3 4 4 3 3 3
3 1 1 0 1 1 1 1 1 1 2 1 2 3 2 2 2 1 1 2 3 3 4 4 4 4 3 3 2 2 2 1 2 2 2 1 1 1 1 1 1 2 2 2 2 2 3 3 4
2 1 0 1 1 0 1 1 1 1 1 1 2 2 2 2 1 1 1 2 2 3 4 5 4 4 3 3 2 2 2 2 2 2 2 2 2 2 2 2 2 2 2 3 3 3 4 4 4
2 2 1 1 1 1 1 1 1 3 0 2 2 1 1 1 1 2 3 3 4 4 5 5 5 4 3 3 3 3 2 2 2 2 3 3 2 2 2 3 2 2 3 3 3 4 4 4 4
2 3 3 2 1 1 2 3 2 2 2 2 1 1 1 1 1 2 2 3 4 4 5 5 5 4 4 4 3 3 2 2 2 3 3 3 3 3 3 3 3 3 3 3 3 3 3 4 4
3 3 1 2 1 1 2 3 3 1 3 0 1 1 1 2 2 2 3 3 4 4 5 5 5 5 5 4 4 3 3 2 2 2 2 3 3 2 2 3 3 3 3 3 3 3 3 4 4
4 2 1 2 1 1 2 4 4 1 1 1 2 2 2 2 3 3 3 3 4 4 4 5 5 5 5 5 4 3 3 3 2 2 2 2 2 2 2 2 2 2 2 3 3 3 3 4 4
2 2 1 1 2 1 2 5 6 2 2 3 3 3 3 3 3 3 3 4 4 4 4 5 5 5 5 4 3 2 2 2 2 2 2 3 2 2 2 2 2 2 2 2 3 3 3 3 3
3 3 1 1 1 1 3 6 8 4 3 3 3 3 3 3 2 2 3 3 4 5 5 6 6 6 5 3 3 3 3 3 3 2 3 3 2 2 1 2 1 2 2 3 3 3 4 3 2
3 2 0 2 2 0 2 7 7 4 4 4 4 4 3 2 2 3 3 4 4 5 5 5 5 6 5 4 3 2 3 2 2 2 3 3 2 2 2 2 2 2 2 2 2 3 3 2 2
2 2 1 1 3 2 3 6 3 1 1 2 2 3 2 2 2 3 3 3 4 5 5 5 6 6 6 5 3 3 2 2 2 3 3 3 3 2 2 2 2 2 2 2 2 3 4 3 3
0 1 2 1 2 2 2 4 6 3 3 3 4 3 3 2 1 2 3 4 4 5 5 5 6 6 6 5 3 3 3 3 3 3 3 3 3 2 2 2 2 2 2 2 3 2 3 3 3
1 1 2 1 2 2 0 2 8 2 4 5 4 4 4 2 2 2 2 3 4 4 4 4 5 6 6 5 4 3 3 3 3 3 4 4 3 2 2 2 2 2 2 2 2 2 2 2 3
2 4 3 3 3 2 3 3 8 4 5 4 3 4 4 3 2 3 2 2 3 4 4 4 5 6 6 5 5 4 4 4 4 4 4 4 3 2 3 2 2 2 2 2 3 2 2 3 3
3 4 3 4 3 5 2 4 10 6 5 5 5 5 4 3 2 2 3 3 3 4 4 4 4 5 6 5 5 5 4 4 4 4 4 4 3 3 3 3 2 2 3 3 2 2 3 3 3
1 4 4 3 4 5 2 7 9 4 3 3 4 4 3 3 3 3 3 3 3 4 4 4 4 5 5 5 5 5 5 3 3 4 4 4 3 3 3 3 2 2 2 3 2 2 3 2 3
2 2 3 3 1 4 6 7 8 2 2 2 2 2 3 4 4 4 4 3 3 3 4 4 4 5 5 5 5 5 5 4 4 4 4 3 3 3 3 3 3 3 3 3 3 2 3 2 3
2 4 3 2 1 4 6 5 5 4 4 3 4 4 5 4 3 4 3 3 3 3 3 3 3 4 4 5 5 4 5 5 4 4 4 4 4 4 3 3 3 2 2 2 2 2 2 3 3
3 2 2 2 2 2 5 8 5 5 4 5 6 5 5 5 4 4 3 3 3 3 3 3 3 4 4 4 5 5 5 5 4 4 4 4 4 4 3 3 3 2 2 2 2 2 3 3 2
3 4 5 3 3 3 3 10 3 4 4 5 6 5 4 4 3 3 3 2 2 3 3 3 3 4 4 4 4 4 5 5 4 4 4 4 4 4 3 3 2 3 3 2 2 3 3 3 3
Wind_Direction
13 54 70 58 62 65 216 230 211 190 199 205 138 120 126 128 143 156 240 345 357 33 9 74 74 88 94 94 98 106 111 113 119 128 136 141 145 148 152 152 155 152 150 147 144 140 135 131 128
40 71 59 65 101 156 243 226 200 200 190 126 83 90 88 84 49 85 352 344 25 54 42 60 68 79 86 87 90 95 105 113 120 128 140 151 157 159 161 163 160 159 157 155 153 146 142 139 137
91 59 87 90 141 183 206 205 201 219 28 112 83 67 101 98 25 58 338 360 54 47 32 45 63 71 78 77 77 81 89 95 113 139 149 159 168 169 167 173 171 164 158 162 161 156 154 150 149
84 55 62 97 199 214 206 201 191 138 43 57 107 81 61 11 336 337 12 65 67 43 30 38 52 55 59 61 61 62 67 77 92 107 197 194 188 190 183 175 171 169 168 170 171 167 164 160 160
63 86 91 163 221 240 246 267 173 119 90 51 102 105 60 350 15 49 59 69 71 47 32 39 41 38 39 39 36 28 17 3 345 302 275 243 224 215 205 192 179 176 181 185 183 178 174 171 171
68 81 124 195 212 251 272 283 114 91 90 78 94 106 129 353 29 33 59 62 61 56 37 35 34 33 29 24 19 11 358 341 324 311 294 293 275 248 234 213 202 193 193 196 194 191 187 182 182
113 115 159 172 173 221 286 357 117 114 97 108 124 112 143 340 10 38 54 54 46 40 35 26 21 21 18 12 6 2 357 343 327 314 306 310 306 285 260 235 215 208 205 205 204 201 197 196 192
123 111 132 170 163 205 314 48 99 119 139 44 114 134 183 226 70 58 49 45 38 33 28 19 13 12 7 357 354 355 350 343 336 323 309 297 292 285 275 252 234 225 217 210 210 211 208 204 198
92 88 177 191 174 183 88 77 12 29 94 39 43 144 175 130 88 64 46 27 21 19 14 11 6 2 356 348 351 350 343 338 331 320 305 289 263 253 259 255 250 241 229 218 214 215 213 206 200
92 149 203 204 181 160 117 100 72 66 58 53 44 33 60 75 80 78 61 27 11 358 354 2 358 352 347 344 347 333 332 327 321 308 296 276 264 256 262 266 257 250 239 228 221 220 215 202 196
107 159 179 235 176 130 111 61 21 116 121 192 171 167 89 70 66 70 51 25 348 335 342 345 343 341 341 335 330 324 320 316 312 302 290 279 265 260 252 244 260 250 241 227 225 219 209 197 195
102 83 129 229 322 54 106 92 44 139 207 198 171 157 126 99 75 71 29 350 342 345 335 333 335 336 332 327 319 308 307 303 298 289 282 268 260 251 241 230 238 241 229 220 218 213 212 208 207
100 108 63 18 34 26 74 71 86 278 260 28 86 95 111 101 58 4 341 336 338 336 330 328 331 331 327 327 317 319 300 291 284 283 273 252 245 248 241 237 230 234 234 219 218 218 218 218 214
146 114 68 14 24 8 94 343 64 273 53 73 79 77 51 63 37 13 359 344 338 331 324 323 327 322 323 321 313 303 296 290 287 281 274 256 238 240 240 241 235 232 230 229 222 222 220 222 217
107 90 33 6 33 3 73 341 262 260 91 78 55 26 9 353 4 351 330 325 323 320 321 323 323 329 326 316 308 308 297 295 291 286 281 270 253 240 237 240 240 236 227 229 228 227 223 224 223
68 77 49 332 59 32 95 277 292 17 114 153 274 303 319 327 331 324 325 326 324 325 326 324 331 332 325 318 310 306 304 304 298 296 295 284 271 255 243 240 241 238 229 222 227 222 226 229 225
45 101 175 320 15 85 137 250 280 360 121 240 261 275 286 309 326 328 336 335 332 332 329 329 332 330 325 322 316 308 309 311 305 305 301 293 286 276 254 253 251 237 230 229 235 231 220 231 230
163 143 166 260 330 79 203 254 277 290 215 246 262 276 281 297 303 322 348 350 350 346 341 337 336 335 331 327 322 317 321 322 317 313 306 300 296 292 269 264 273 259 237 237 231 238 231 230 232
138 128 150 279 332 32 247 265 273 272 246 251 262 271 273 277 295 341 355 354 353 351 352 346 342 339 341 335 329 322 318 321 324 318 319 314 302 290 272 271 270 266 247 242 237 238 242 237 230
108 112 24 336 14 39 294 282 270 251 230 228 236 248 253 282 329 340 350 358 352 343 344 343 342 337 337 326 310 290 288 294 300 309 323 321 316 312 283 257 252 256 252 249 243 238 242 240 212
76 150 181 285 350 28 341 308 292 286 258 254 243 234 235 227 265 313 334 340 341 341 339 338 335 335 334 327 319 316 319 316 320 326 324 330 323 308 288 272 254 253 241 246 244 233 230 239 230
131 170 152 101 39 323 32 299 288 275 283 256 249 247 245 248 256 295 318 330 327 323 329 333 333 334 333 333 329 321 315 302 301 307 305 315 317 306 285 274 263 259 254 255 250 240 234 233 236
164 90 96 92 107 338 324 228 282 300 269 260 251 248 249 244 244 267 283 298 313 323 329 332 334 336 335 335 331 320 308 296 299 308 314 316 313 304 296 279 262 256 255 254 251 248 238 234 235
109 67 55 51 63 297 229 192 275 244 230 253 256 255 247 240 250 267 288 311 322 326 328 333 339 336 336 339 337 323 305 302 306 311 313 311 308 306 312 292 274 265 259 255 250 239 237 241 238
72 81 33 1 355 258 204 212 251 245 226 225 242 250 242 231 237 266 291 306 310 315 323 330 336 331 334 339 337 327 316 304 295 293 294 296 297 300 303 295 285 273 266 265 254 237 238 238 237
111 127 150 205 242 284 259 239 253 246 247 240 239 242 235 237 244 254 263 272 284 298 312 323 327 325 330 333 329 326 320 311 307 301 291 290 286 285 289 287 286 281 274 274 262 247 241 238 238
130 147 158 137 235 279 269 277 292 239 260 254 252 249 243 243 245 254 265 269 278 291 300 309 316 319 324 325 323 324 322 317 313 311 306 296 290 289 296 289 285 282 272 263 257 246 240 233 233
145 147 114 131 214 280 290 271 257 269 266 271 261 254 254 251 250 259 264 266 273 281 296 306 304 309 315 321 319 321 319 316 312 310 310 306 303 298 297 297 288 282 276 267 258 262 248 230 234
147 153 154 153 175 201 285 276 230 221 238 252 257 251 248 248 248 256 266 265 269 283 292 301 307 313 318 320 317 317 316 316 317 313 311 309 306 302 294 295 292 289 291 286 268 260 256 246 245
186 188 163 174 224 204 238 270 269 223 246 249 256 256 246 247 252 256 259 263 273 283 292 299 305 310 311 314 315 316 318 320 323 320 316 316 311 307 306 307 301 296 293 286 273 269 262 243 239